C/2019 L3 ( ATLAS )

Japanese version
Home page
Updated on July 24, 2022

---------------------------------------------------------------------

* Profile

Discovery Date June 10, 2019
Magnitude 18.1 mag
Discoverer Asteroid Terrestrial-Impact Last Alert System (ATLAS) search program

* Pictures

* Orbital Elements

Epoch 2022 Jan. 21.0 TT = JDT 2459600.5
T 2022 Jan.  9.62325 TT                                 Rudenko
q   3.5544868            (2000.0)            P               Q
z  -0.0004454      Peri.  171.61148     -0.26052692     -0.66630481
 +/-0.0000005      Node   290.78998     +0.83676376     +0.20516914
e   1.0015832      Incl.   48.36122     +0.48161410     -0.71689854
From 3858 observations 2019 June 10-2022 Feb. 2, mean residual 0".8.

* Finding Charts

* Magnitudes Graph

        m1 = -2.2 + 5 log d + 17.0 log r

---------------------------------------------------------------------

The orbital elements are published on M.P.E.C. 2022-C56.
The charts are made with StellaNavigator Ver.10 (AstroArts).
The magnitudes graphs are made with Comet for Windows.

---------------------------------------------------------------------

Copyright(C) Seiichi Yoshida (comet@aerith.net). All rights reserved.